Year,Month,Day,Hour,Minute,Value (Times are PST for windgust in km/hr)
2018,12,19,00,00,9.60
2018,12,19,00,01,9.60
2018,12,19,00,02,12.90
2018,12,19,00,03,19.30
2018,12,19,00,04,14.50
2018,12,19,00,05,8.10
2018,12,19,00,06,16.10
2018,12,19,00,07,16.10
2018,12,19,00,08,8.10
2018,12,19,00,09,6.40
2018,12,19,00,10,16.10
2018,12,19,00,11,11.30
2018,12,19,00,12,6.40
2018,12,19,00,13,8.10
2018,12,19,00,14,9.60
2018,12,19,00,15,6.40
2018,12,19,00,16,11.30
2018,12,19,00,17,16.10
2018,12,19,00,18,9.60
2018,12,19,00,19,9.60
2018,12,19,00,20,8.10
2018,12,19,00,21,24.20
2018,12,19,00,22,14.50
2018,12,19,00,23,19.30
2018,12,19,00,24,20.90
2018,12,19,00,25,9.60
2018,12,19,00,26,11.30
2018,12,19,00,27,14.50
2018,12,19,00,28,14.50
2018,12,19,00,29,19.30
2018,12,19,00,30,19.30
2018,12,19,00,31,19.30
2018,12,19,00,32,16.10
2018,12,19,00,33,14.50
2018,12,19,00,34,6.40
2018,12,19,00,35,8.10
2018,12,19,00,36,11.30
2018,12,19,00,37,12.90
2018,12,19,00,38,11.30
2018,12,19,00,39,19.30
2018,12,19,00,40,11.30
2018,12,19,00,41,25.70
2018,12,19,00,42,19.30
2018,12,19,00,43,22.50
2018,12,19,00,44,19.30
2018,12,19,00,45,20.90
2018,12,19,00,46,16.10
2018,12,19,00,47,11.30
2018,12,19,00,48,11.30
2018,12,19,00,49,14.50
2018,12,19,00,50,22.50
2018,12,19,00,51,16.10
2018,12,19,00,52,16.10
2018,12,19,00,53,20.90
2018,12,19,00,54,20.90
2018,12,19,00,55,20.90
2018,12,19,00,56,11.30
2018,12,19,00,57,22.50
2018,12,19,00,58,12.90
2018,12,19,00,59,9.60
2018,12,19,01,00,16.10
2018,12,19,01,01,11.30
2018,12,19,01,02,14.50
2018,12,19,01,03,9.60
2018,12,19,01,04,9.60
2018,12,19,01,05,14.50
2018,12,19,01,06,19.30
2018,12,19,01,07,20.90
2018,12,19,01,08,20.90
2018,12,19,01,09,11.30
2018,12,19,01,10,16.10
2018,12,19,01,11,16.10
2018,12,19,01,12,20.90
2018,12,19,01,13,22.50
2018,12,19,01,14,19.30
2018,12,19,01,15,9.60
2018,12,19,01,16,12.90
2018,12,19,01,17,20.90
2018,12,19,01,18,9.60
2018,12,19,01,19,19.30
2018,12,19,01,20,19.30
2018,12,19,01,21,17.70
2018,12,19,01,22,16.10
2018,12,19,01,23,17.70
2018,12,19,01,24,19.30
2018,12,19,01,25,17.70
2018,12,19,01,26,16.10
2018,12,19,01,27,17.70
2018,12,19,01,28,27.40
2018,12,19,01,29,24.20
2018,12,19,01,30,19.30
2018,12,19,01,31,20.90
2018,12,19,01,32,20.90
2018,12,19,01,33,12.90
2018,12,19,01,34,12.90
2018,12,19,01,35,14.50
2018,12,19,01,36,11.30
2018,12,19,01,37,17.70
2018,12,19,01,38,22.50
2018,12,19,01,39,14.50
2018,12,19,01,40,11.30
2018,12,19,01,41,11.30
2018,12,19,01,42,17.70
2018,12,19,01,43,11.30
2018,12,19,01,44,14.50
2018,12,19,01,45,14.50
2018,12,19,01,46,11.30
2018,12,19,01,47,9.60
2018,12,19,01,48,9.60
2018,12,19,01,49,9.60
2018,12,19,01,50,19.30
2018,12,19,01,51,8.10
2018,12,19,01,52,16.10
2018,12,19,01,53,9.60
2018,12,19,01,54,8.10
2018,12,19,01,55,11.30
2018,12,19,01,56,8.10
2018,12,19,01,57,22.50
2018,12,19,01,58,12.90
2018,12,19,01,59,9.60
2018,12,19,02,00,8.10
2018,12,19,02,01,16.10
2018,12,19,02,02,11.30
2018,12,19,02,03,16.10
2018,12,19,02,04,14.50
2018,12,19,02,05,20.90
2018,12,19,02,06,11.30
2018,12,19,02,07,14.50
2018,12,19,02,08,12.90
2018,12,19,02,09,16.10
2018,12,19,02,10,9.60
2018,12,19,02,11,14.50
2018,12,19,02,12,25.70
2018,12,19,02,13,16.10
2018,12,19,02,14,8.10
2018,12,19,02,15,4.80
2018,12,19,02,16,4.80
2018,12,19,02,17,4.80
2018,12,19,02,18,4.80
2018,12,19,02,19,4.80
2018,12,19,02,20,4.80
2018,12,19,02,21,4.80
2018,12,19,02,22,4.80
2018,12,19,02,23,4.80
2018,12,19,02,24,4.80
2018,12,19,02,58,9.60
2018,12,19,02,59,8.10
2018,12,19,03,00,8.10
2018,12,19,03,01,16.10
2018,12,19,03,02,4.80
2018,12,19,03,03,11.30
2018,12,19,03,04,11.30
2018,12,19,03,05,9.60
2018,12,19,03,06,9.60
2018,12,19,03,07,14.50
2018,12,19,03,08,17.70
2018,12,19,03,09,8.10
2018,12,19,03,10,11.30
2018,12,19,03,11,11.30
2018,12,19,03,12,14.50
2018,12,19,03,13,14.50
2018,12,19,03,14,19.30
2018,12,19,03,15,17.70
2018,12,19,03,16,9.60
2018,12,19,03,17,9.60
2018,12,19,03,18,9.60
2018,12,19,03,19,11.30
2018,12,19,03,20,16.10
2018,12,19,03,21,11.30
2018,12,19,03,22,14.50
2018,12,19,03,23,11.30
2018,12,19,03,24,14.50
2018,12,19,03,25,14.50
2018,12,19,03,26,14.50
2018,12,19,03,27,6.40
2018,12,19,03,28,22.50
2018,12,19,03,29,17.70
2018,12,19,03,30,17.70
2018,12,19,03,31,6.40
2018,12,19,03,32,19.30
2018,12,19,03,33,20.90
2018,12,19,03,34,11.30
2018,12,19,03,35,16.10
2018,12,19,03,36,16.10
2018,12,19,03,37,6.40
2018,12,19,03,38,8.10
2018,12,19,03,39,12.90
2018,12,19,03,40,16.10
2018,12,19,03,41,11.30
2018,12,19,03,42,16.10
2018,12,19,03,43,16.10
2018,12,19,03,44,9.60
2018,12,19,03,45,11.30
2018,12,19,03,46,8.10
2018,12,19,03,47,16.10
2018,12,19,03,48,9.60
2018,12,19,03,49,8.10
2018,12,19,03,50,6.40
2018,12,19,03,51,11.30
2018,12,19,03,52,14.50
2018,12,19,03,53,11.30
2018,12,19,03,54,16.10
2018,12,19,03,55,9.60
2018,12,19,03,56,6.40
2018,12,19,03,57,16.10
2018,12,19,03,58,8.10
2018,12,19,03,59,9.60
2018,12,19,04,00,4.80
2018,12,19,04,01,8.10
2018,12,19,04,02,11.30
2018,12,19,04,03,16.10
2018,12,19,04,04,12.90
2018,12,19,04,05,11.30
2018,12,19,04,06,8.10
2018,12,19,04,07,8.10
2018,12,19,04,08,8.10
2018,12,19,04,09,8.10
2018,12,19,04,10,8.10
2018,12,19,04,11,9.60
2018,12,19,04,12,8.10
2018,12,19,04,13,6.40
2018,12,19,04,14,8.10
2018,12,19,04,15,8.10
2018,12,19,04,16,6.40
2018,12,19,04,17,14.50
2018,12,19,04,18,4.80
2018,12,19,04,19,8.10
2018,12,19,04,20,6.40
2018,12,19,04,21,9.60
2018,12,19,04,22,8.10
2018,12,19,04,23,6.40
2018,12,19,04,24,4.80
2018,12,19,04,25,3.20
2018,12,19,04,26,6.40
2018,12,19,04,27,6.40
2018,12,19,04,28,6.40
2018,12,19,04,29,4.80
2018,12,19,04,30,4.80
2018,12,19,04,31,11.30
2018,12,19,04,32,8.10
2018,12,19,04,33,6.40
2018,12,19,04,34,6.40
2018,12,19,04,35,4.80
2018,12,19,04,36,9.60
2018,12,19,04,37,6.40
2018,12,19,04,38,11.30
2018,12,19,04,39,6.40
2018,12,19,04,40,8.10
2018,12,19,04,41,8.10
2018,12,19,04,42,6.40
2018,12,19,04,43,4.80
2018,12,19,04,44,3.20
2018,12,19,04,45,6.40
2018,12,19,04,46,4.80
2018,12,19,04,47,4.80
2018,12,19,04,49,1.60
2018,12,19,04,50,3.20
2018,12,19,04,52,8.10
2018,12,19,04,53,6.40
2018,12,19,04,54,3.20
2018,12,19,04,56,1.60
2018,12,19,04,57,3.20
2018,12,19,04,58,9.60
2018,12,19,04,59,6.40
2018,12,19,05,00,3.20
2018,12,19,05,01,1.60
2018,12,19,05,02,3.20
2018,12,19,05,03,4.80
2018,12,19,05,05,1.60
2018,12,19,05,06,1.60
2018,12,19,05,07,3.20
2018,12,19,05,08,1.60
2018,12,19,05,11,1.60
2018,12,19,05,17,1.60
2018,12,19,05,28,11.30
2018,12,19,05,29,8.10
2018,12,19,05,34,1.60
2018,12,19,05,35,1.60
2018,12,19,05,36,3.20
2018,12,19,05,37,4.80
2018,12,19,05,38,4.80
2018,12,19,05,39,4.80
2018,12,19,05,40,8.10
2018,12,19,05,42,6.40
2018,12,19,05,43,4.80
2018,12,19,05,44,3.20
2018,12,19,05,45,6.40
2018,12,19,05,46,4.80
2018,12,19,05,47,3.20
2018,12,19,05,48,6.40
2018,12,19,05,49,3.20
2018,12,19,05,50,4.80
2018,12,19,05,51,3.20
2018,12,19,05,52,1.60
2018,12,19,05,53,17.70
2018,12,19,05,54,6.40
2018,12,19,05,55,9.60
2018,12,19,05,56,3.20
2018,12,19,05,57,3.20
2018,12,19,06,00,6.40
2018,12,19,06,01,1.60
2018,12,19,06,04,8.10
2018,12,19,06,05,1.60
2018,12,19,06,06,3.20
2018,12,19,06,07,9.60
2018,12,19,06,08,6.40
2018,12,19,06,09,6.40
2018,12,19,06,10,6.40
2018,12,19,06,11,8.10
2018,12,19,06,12,9.60
2018,12,19,06,13,9.60
2018,12,19,06,14,6.40
2018,12,19,06,15,4.80
2018,12,19,06,16,8.10
2018,12,19,06,17,4.80
2018,12,19,06,18,6.40
2018,12,19,06,19,6.40
2018,12,19,06,20,3.20
2018,12,19,06,21,6.40
2018,12,19,06,22,4.80
2018,12,19,06,23,4.80
2018,12,19,06,24,4.80
2018,12,19,06,25,3.20
2018,12,19,06,26,6.40
2018,12,19,06,27,1.60
2018,12,19,06,28,1.60
2018,12,19,06,29,3.20
2018,12,19,06,30,1.60
2018,12,19,06,31,3.20
2018,12,19,06,32,6.40
2018,12,19,06,33,4.80
2018,12,19,06,34,4.80
2018,12,19,06,35,6.40
2018,12,19,06,36,4.80
2018,12,19,06,37,9.60
2018,12,19,06,38,8.10
2018,12,19,06,39,9.60
2018,12,19,06,40,8.10
2018,12,19,06,41,1.60
2018,12,19,06,46,1.60
2018,12,19,06,50,1.60
2018,12,19,06,51,1.60
2018,12,19,07,20,3.20
2018,12,19,07,21,4.80
2018,12,19,07,22,3.20
2018,12,19,07,23,3.20
2018,12,19,07,24,3.20
2018,12,19,07,25,1.60
2018,12,19,07,26,3.20
2018,12,19,07,27,4.80
2018,12,19,07,28,3.20
2018,12,19,07,29,1.60
2018,12,19,07,30,1.60
2018,12,19,07,31,1.60
2018,12,19,07,32,3.20
2018,12,19,07,33,3.20
2018,12,19,07,38,3.20
2018,12,19,07,39,3.20
2018,12,19,07,40,1.60
2018,12,19,07,41,3.20
2018,12,19,07,42,4.80
2018,12,19,07,43,3.20
2018,12,19,07,45,1.60
2018,12,19,07,46,3.20
2018,12,19,07,47,1.60
2018,12,19,07,48,1.60
2018,12,19,07,49,1.60
2018,12,19,07,50,3.20
2018,12,19,07,51,4.80
2018,12,19,07,52,3.20
2018,12,19,07,53,4.80
2018,12,19,07,54,4.80
2018,12,19,07,55,3.20
2018,12,19,07,56,3.20
2018,12,19,07,57,3.20
2018,12,19,07,58,3.20
2018,12,19,07,59,4.80
2018,12,19,08,00,1.60
2018,12,19,08,01,1.60
2018,12,19,08,02,3.20
2018,12,19,08,03,1.60
2018,12,19,08,04,1.60
2018,12,19,08,05,3.20
2018,12,19,08,06,3.20
2018,12,19,08,07,3.20
2018,12,19,08,08,1.60
2018,12,19,08,09,1.60
2018,12,19,08,10,3.20
2018,12,19,08,11,3.20
2018,12,19,08,12,4.80
2018,12,19,08,13,4.80
2018,12,19,08,14,6.40
2018,12,19,08,15,6.40
2018,12,19,08,16,6.40
2018,12,19,08,17,8.10
2018,12,19,08,18,4.80
2018,12,19,08,19,6.40
2018,12,19,08,20,6.40
2018,12,19,08,21,4.80
2018,12,19,08,22,4.80
2018,12,19,08,23,4.80
2018,12,19,08,24,3.20
2018,12,19,08,26,1.60
2018,12,19,08,27,1.60
2018,12,19,08,28,4.80
2018,12,19,08,29,4.80
2018,12,19,08,30,4.80
2018,12,19,08,31,1.60
2018,12,19,08,32,3.20
2018,12,19,08,33,1.60
2018,12,19,08,34,3.20
2018,12,19,08,35,3.20
2018,12,19,08,36,3.20
2018,12,19,08,37,1.60
2018,12,19,08,38,3.20
2018,12,19,08,39,3.20
2018,12,19,08,40,1.60
2018,12,19,08,42,1.60
2018,12,19,08,43,1.60
2018,12,19,08,45,4.80
2018,12,19,08,46,1.60
2018,12,19,08,47,1.60
2018,12,19,08,50,1.60
2018,12,19,08,52,3.20
2018,12,19,08,53,1.60
2018,12,19,08,54,1.60
2018,12,19,08,59,1.60
2018,12,19,09,02,1.60
2018,12,19,09,03,1.60
2018,12,19,09,10,1.60
2018,12,19,09,11,1.60
2018,12,19,09,12,3.20
2018,12,19,09,13,3.20
2018,12,19,09,21,1.60
2018,12,19,09,26,1.60
2018,12,19,09,28,1.60
2018,12,19,09,29,3.20
2018,12,19,09,30,1.60
2018,12,19,09,31,4.80
2018,12,19,09,32,4.80
2018,12,19,09,33,4.80
2018,12,19,09,34,1.60
2018,12,19,09,35,3.20
2018,12,19,09,37,1.60
2018,12,19,09,38,3.20
2018,12,19,09,39,1.60
2018,12,19,09,40,3.20
2018,12,19,09,41,1.60
2018,12,19,09,42,1.60
2018,12,19,09,43,1.60
2018,12,19,09,44,1.60
2018,12,19,09,45,1.60
2018,12,19,09,46,1.60
2018,12,19,09,58,1.60
2018,12,19,10,00,3.20
2018,12,19,10,01,3.20
2018,12,19,10,02,3.20
2018,12,19,10,03,3.20
2018,12,19,10,04,1.60
2018,12,19,10,05,3.20
2018,12,19,10,06,4.80
2018,12,19,10,07,6.40
2018,12,19,10,08,6.40
2018,12,19,10,09,4.80
2018,12,19,10,10,6.40
2018,12,19,10,11,3.20
2018,12,19,10,12,4.80
2018,12,19,10,13,4.80
2018,12,19,10,14,4.80
2018,12,19,10,15,4.80
2018,12,19,10,16,4.80
2018,12,19,10,17,4.80
2018,12,19,10,18,3.20
2018,12,19,10,19,4.80
2018,12,19,10,20,6.40
2018,12,19,10,21,4.80
2018,12,19,10,22,3.20
2018,12,19,10,23,3.20
2018,12,19,10,24,4.80
2018,12,19,10,25,1.60
2018,12,19,10,26,3.20
2018,12,19,10,27,4.80
2018,12,19,10,28,4.80
2018,12,19,10,29,4.80
2018,12,19,10,30,6.40
2018,12,19,10,31,4.80
2018,12,19,10,32,6.40
2018,12,19,10,33,4.80
2018,12,19,10,34,1.60
2018,12,19,10,35,1.60
2018,12,19,10,36,1.60
2018,12,19,10,37,1.60
2018,12,19,10,39,1.60
2018,12,19,10,40,1.60
2018,12,19,10,44,1.60
2018,12,19,10,46,1.60
2018,12,19,10,50,1.60
2018,12,19,10,51,1.60
2018,12,19,10,53,3.20
2018,12,19,10,57,3.20
2018,12,19,10,58,3.20
2018,12,19,10,59,1.60
2018,12,19,11,00,1.60
2018,12,19,11,01,8.10
2018,12,19,11,02,9.60
2018,12,19,11,03,9.60
2018,12,19,11,04,11.30
2018,12,19,11,05,11.30
2018,12,19,11,06,6.40
2018,12,19,11,07,8.10
2018,12,19,11,08,3.20
2018,12,19,11,09,3.20
2018,12,19,11,12,1.60
2018,12,19,11,13,1.60
2018,12,19,11,18,1.60
2018,12,19,11,22,1.60
2018,12,19,11,23,1.60
2018,12,19,11,24,1.60
2018,12,19,11,49,1.60
2018,12,19,11,50,3.20
2018,12,19,11,51,1.60
2018,12,19,11,52,4.80
2018,12,19,11,53,4.80
2018,12,19,11,54,3.20
2018,12,19,11,55,4.80
2018,12,19,11,56,3.20
2018,12,19,11,57,3.20
2018,12,19,11,58,3.20
2018,12,19,11,59,1.60
2018,12,19,12,00,3.20
2018,12,19,12,03,1.60
2018,12,19,12,04,4.80
2018,12,19,12,05,1.60
2018,12,19,12,06,4.80
2018,12,19,12,07,3.20
2018,12,19,12,08,4.80
2018,12,19,12,09,4.80
2018,12,19,12,10,6.40
2018,12,19,12,11,8.10
2018,12,19,12,12,6.40
2018,12,19,12,13,3.20
2018,12,19,12,14,3.20
2018,12,19,12,16,1.60
2018,12,19,12,18,3.20
2018,12,19,12,19,1.60
2018,12,19,12,22,1.60
2018,12,19,12,23,3.20
2018,12,19,12,24,6.40
2018,12,19,12,25,4.80
2018,12,19,12,26,8.10
2018,12,19,12,27,6.40
2018,12,19,12,28,4.80
2018,12,19,12,29,1.60
2018,12,19,12,30,1.60
2018,12,19,12,31,3.20
2018,12,19,12,32,3.20
2018,12,19,12,33,3.20
2018,12,19,12,34,4.80
2018,12,19,12,35,1.60
2018,12,19,12,36,3.20
2018,12,19,12,37,3.20
2018,12,19,12,38,3.20
2018,12,19,12,39,1.60
2018,12,19,12,41,1.60
2018,12,19,12,42,1.60
2018,12,19,12,43,1.60
2018,12,19,12,44,1.60
2018,12,19,12,45,3.20
2018,12,19,12,46,3.20
2018,12,19,12,47,1.60
2018,12,19,12,48,1.60
2018,12,19,12,49,1.60
2018,12,19,12,53,1.60
2018,12,19,12,55,1.60
2018,12,19,13,01,1.60
2018,12,19,13,04,1.60
2018,12,19,13,07,1.60
2018,12,19,13,09,1.60
2018,12,19,13,10,1.60
2018,12,19,13,11,1.60
2018,12,19,13,12,1.60
2018,12,19,13,18,1.60
2018,12,19,13,19,1.60
2018,12,19,13,20,1.60
2018,12,19,13,21,3.20
2018,12,19,13,22,3.20
2018,12,19,13,23,1.60
2018,12,19,13,24,1.60
2018,12,19,13,25,1.60
2018,12,19,13,45,1.60
2018,12,19,13,46,3.20
2018,12,19,13,47,1.60
2018,12,19,13,48,3.20
2018,12,19,13,49,1.60
2018,12,19,13,50,1.60
2018,12,19,13,52,1.60
2018,12,19,13,53,1.60
2018,12,19,13,54,1.60
2018,12,19,13,56,1.60
2018,12,19,14,00,1.60
2018,12,19,14,02,3.20
2018,12,19,14,09,1.60
2018,12,19,15,51,1.60
2018,12,19,16,23,1.60
2018,12,19,16,24,1.60
2018,12,19,16,28,1.60
2018,12,19,16,31,1.60
2018,12,19,16,32,3.20
2018,12,19,16,33,3.20
2018,12,19,16,39,1.60
2018,12,19,16,40,1.60
2018,12,19,16,59,1.60
2018,12,19,17,00,1.60
2018,12,19,17,01,1.60
2018,12,19,17,02,1.60
2018,12,19,17,04,1.60
2018,12,19,17,05,1.60
2018,12,19,17,07,4.80
2018,12,19,17,11,1.60
2018,12,19,17,12,1.60
2018,12,19,17,13,1.60
2018,12,19,17,14,3.20
2018,12,19,17,15,1.60
2018,12,19,17,25,1.60
2018,12,19,17,26,1.60
2018,12,19,17,27,1.60
2018,12,19,17,28,1.60
2018,12,19,17,30,1.60
2018,12,19,17,36,3.20
2018,12,19,17,37,3.20
2018,12,19,17,43,1.60
2018,12,19,17,44,1.60
2018,12,19,17,45,1.60
2018,12,19,17,46,3.20
2018,12,19,17,47,1.60
2018,12,19,17,49,1.60
2018,12,19,17,50,1.60
2018,12,19,17,51,1.60
2018,12,19,17,53,1.60
2018,12,19,17,54,1.60
2018,12,19,17,55,1.60
2018,12,19,17,57,1.60
2018,12,19,17,58,1.60
2018,12,19,18,00,3.20
2018,12,19,18,03,1.60
2018,12,19,18,04,1.60
2018,12,19,18,06,3.20
2018,12,19,18,07,3.20
2018,12,19,18,08,1.60
2018,12,19,18,10,1.60
2018,12,19,18,13,1.60
2018,12,19,18,14,3.20
2018,12,19,18,15,1.60
2018,12,19,18,21,3.20
2018,12,19,18,29,1.60
2018,12,19,18,30,1.60
2018,12,19,18,31,1.60
2018,12,19,18,32,1.60
2018,12,19,18,33,1.60
2018,12,19,18,34,1.60
2018,12,19,18,37,1.60
2018,12,19,18,42,3.20
2018,12,19,18,43,3.20
2018,12,19,18,50,1.60
2018,12,19,18,52,1.60
2018,12,19,18,53,1.60
2018,12,19,18,55,3.20
2018,12,19,18,56,1.60
2018,12,19,19,05,1.60
2018,12,19,19,08,1.60
2018,12,19,19,09,1.60
2018,12,19,19,15,1.60
2018,12,19,19,16,3.20
2018,12,19,19,17,1.60
2018,12,19,19,19,3.20
2018,12,19,19,20,4.80
2018,12,19,19,21,3.20
2018,12,19,19,22,1.60
2018,12,19,19,23,1.60
2018,12,19,19,25,1.60
2018,12,19,19,26,3.20
2018,12,19,19,28,1.60
2018,12,19,19,30,1.60
2018,12,19,19,31,3.20
2018,12,19,19,32,4.80
2018,12,19,19,33,1.60
2018,12,19,19,37,1.60
2018,12,19,19,38,6.40
2018,12,19,19,39,1.60
2018,12,19,19,40,1.60
2018,12,19,19,42,1.60
2018,12,19,19,43,1.60
2018,12,19,19,45,1.60
2018,12,19,19,46,3.20
2018,12,19,19,47,3.20
2018,12,19,19,48,1.60
2018,12,19,19,49,1.60
2018,12,19,19,50,3.20
2018,12,19,19,51,3.20
2018,12,19,19,53,3.20
2018,12,19,19,54,1.60
2018,12,19,19,55,3.20
2018,12,19,19,56,8.10
2018,12,19,19,57,6.40
2018,12,19,19,58,1.60
2018,12,19,20,00,1.60
2018,12,19,20,01,3.20
2018,12,19,20,02,4.80
2018,12,19,20,04,1.60
2018,12,19,20,05,1.60
2018,12,19,20,06,1.60
2018,12,19,20,07,3.20
2018,12,19,20,08,6.40
2018,12,19,20,09,3.20
2018,12,19,20,10,1.60
2018,12,19,20,11,3.20
2018,12,19,20,14,6.40
2018,12,19,20,15,1.60
2018,12,19,20,16,1.60
2018,12,19,20,18,3.20
2018,12,19,20,19,4.80
2018,12,19,20,20,3.20
2018,12,19,20,21,3.20
2018,12,19,20,22,3.20
2018,12,19,20,24,1.60
2018,12,19,20,26,1.60
2018,12,19,20,27,3.20
2018,12,19,20,28,6.40
2018,12,19,20,29,6.40
2018,12,19,20,30,1.60
2018,12,19,20,31,1.60
2018,12,19,20,34,3.20
2018,12,19,20,35,6.40
2018,12,19,20,36,3.20
2018,12,19,20,37,3.20
2018,12,19,20,38,4.80
2018,12,19,20,39,3.20
2018,12,19,20,40,1.60
2018,12,19,20,42,4.80
2018,12,19,20,45,1.60
2018,12,19,20,46,3.20
2018,12,19,20,47,1.60
2018,12,19,20,48,6.40
2018,12,19,20,49,4.80
2018,12,19,20,51,19.30
2018,12,19,20,52,4.80
2018,12,19,20,53,1.60
2018,12,19,20,54,1.60
2018,12,19,20,55,1.60
2018,12,19,20,56,3.20
2018,12,19,20,57,4.80
2018,12,19,20,59,3.20
2018,12,19,21,00,6.40
2018,12,19,21,01,4.80
2018,12,19,21,02,3.20
2018,12,19,21,03,1.60
2018,12,19,21,04,4.80
2018,12,19,21,05,3.20
2018,12,19,21,06,3.20
2018,12,19,21,07,1.60
2018,12,19,21,08,16.10
2018,12,19,21,09,17.70
2018,12,19,21,10,11.30
2018,12,19,21,11,9.60
2018,12,19,21,12,3.20
2018,12,19,21,13,9.60
2018,12,19,21,14,6.40
2018,12,19,21,15,3.20
2018,12,19,21,16,4.80
2018,12,19,21,17,11.30
2018,12,19,21,18,16.10
2018,12,19,21,19,4.80
2018,12,19,21,20,4.80
2018,12,19,21,21,8.10
2018,12,19,21,22,3.20
2018,12,19,21,23,3.20
2018,12,19,21,24,6.40
2018,12,19,21,25,1.60
2018,12,19,21,26,3.20
2018,12,19,21,27,1.60
2018,12,19,21,30,1.60
2018,12,19,21,31,4.80
2018,12,19,21,32,3.20
2018,12,19,21,33,4.80
2018,12,19,21,34,3.20
2018,12,19,21,35,1.60
2018,12,19,21,38,1.60
2018,12,19,21,39,1.60
2018,12,19,21,41,6.40
2018,12,19,21,42,3.20
2018,12,19,21,43,1.60
2018,12,19,21,44,3.20
2018,12,19,21,45,6.40
2018,12,19,21,46,4.80
2018,12,19,21,47,3.20
2018,12,19,21,48,4.80
2018,12,19,21,49,4.80
2018,12,19,21,50,8.10
2018,12,19,21,51,3.20
2018,12,19,21,52,4.80
2018,12,19,21,53,6.40
2018,12,19,21,54,3.20
2018,12,19,21,55,3.20
2018,12,19,21,56,3.20
2018,12,19,21,57,4.80
2018,12,19,21,58,6.40
2018,12,19,21,59,4.80
2018,12,19,22,00,3.20
2018,12,19,22,01,1.60
2018,12,19,22,02,4.80
2018,12,19,22,03,4.80
2018,12,19,22,04,1.60
2018,12,19,22,05,8.10
2018,12,19,22,06,17.70
2018,12,19,22,07,8.10
2018,12,19,22,08,6.40
2018,12,19,22,09,3.20
2018,12,19,22,10,6.40
2018,12,19,22,11,4.80
2018,12,19,22,12,1.60
2018,12,19,22,13,6.40
2018,12,19,22,14,3.20
2018,12,19,22,15,3.20
2018,12,19,22,16,3.20
2018,12,19,22,17,1.60
2018,12,19,22,18,1.60
2018,12,19,22,19,3.20
2018,12,19,22,20,3.20
2018,12,19,22,21,3.20
2018,12,19,22,22,3.20
2018,12,19,22,23,6.40
2018,12,19,22,24,3.20
2018,12,19,22,25,1.60
2018,12,19,22,26,6.40
2018,12,19,22,27,3.20
2018,12,19,22,28,3.20
2018,12,19,22,29,4.80
2018,12,19,22,30,3.20
2018,12,19,22,31,3.20
2018,12,19,22,32,6.40
2018,12,19,22,33,3.20
2018,12,19,22,35,6.40
2018,12,19,22,36,1.60
2018,12,19,22,37,3.20
2018,12,19,22,38,6.40
2018,12,19,22,39,1.60
2018,12,19,22,40,1.60
2018,12,19,22,41,4.80
2018,12,19,22,42,8.10
2018,12,19,22,43,3.20
2018,12,19,22,44,4.80
2018,12,19,22,45,4.80
2018,12,19,22,46,1.60
2018,12,19,22,47,4.80
2018,12,19,22,48,11.30
2018,12,19,22,49,1.60
2018,12,19,22,50,3.20
2018,12,19,22,51,3.20
2018,12,19,22,52,3.20
2018,12,19,22,53,4.80
2018,12,19,22,54,3.20
2018,12,19,22,55,1.60
2018,12,19,22,56,1.60
2018,12,19,22,57,1.60
2018,12,19,22,58,1.60
2018,12,19,22,59,3.20
2018,12,19,23,02,3.20
2018,12,19,23,03,3.20
2018,12,19,23,04,3.20
2018,12,19,23,05,3.20
2018,12,19,23,06,4.80
2018,12,19,23,07,1.60
2018,12,19,23,08,6.40
2018,12,19,23,09,4.80
2018,12,19,23,10,1.60
2018,12,19,23,11,6.40
2018,12,19,23,12,6.40
2018,12,19,23,13,1.60
2018,12,19,23,14,4.80
2018,12,19,23,15,1.60
2018,12,19,23,17,4.80
2018,12,19,23,18,9.60
2018,12,19,23,19,4.80
2018,12,19,23,20,1.60
2018,12,19,23,21,4.80
2018,12,19,23,23,3.20
2018,12,19,23,24,6.40
2018,12,19,23,25,8.10
2018,12,19,23,28,4.80
2018,12,19,23,29,3.20
2018,12,19,23,30,1.60
2018,12,19,23,31,3.20
2018,12,19,23,32,6.40
2018,12,19,23,33,4.80
2018,12,19,23,34,4.80
2018,12,19,23,35,4.80
2018,12,19,23,36,6.40
2018,12,19,23,37,1.60
2018,12,19,23,38,3.20
2018,12,19,23,39,1.60
2018,12,19,23,40,1.60
2018,12,19,23,41,4.80
2018,12,19,23,42,1.60
2018,12,19,23,43,1.60
2018,12,19,23,45,3.20
2018,12,19,23,46,1.60
2018,12,19,23,49,1.60
2018,12,19,23,50,3.20
2018,12,19,23,51,3.20
2018,12,19,23,52,1.60
2018,12,19,23,53,1.60
2018,12,19,23,54,1.60
2018,12,19,23,55,6.40
2018,12,19,23,56,3.20
2018,12,19,23,57,6.40
2018,12,19,23,58,4.80
2018,12,19,23,59,4.80
